TimeCST,TemperatureF,Dew PointF,Humidity,Sea Level PressureIn,VisibilityMPH,Wind Direction,Wind SpeedMPH,Gust SpeedMPH,PrecipitationIn,Events,Conditions,WindDirDegrees,DateUTC
12:35 AM,36.5,26.6,67,29.66,10.0,SSE,18.4,-,N/A,,Clear,150,2012-02-26 06:35:00
12:55 AM,36.7,26.6,67,29.68,10.0,SSE,16.1,20.7,N/A,,Clear,150,2012-02-26 06:55:00
1:15 AM,36.5,26.8,68,29.67,10.0,SSE,16.1,-,N/A,,Clear,150,2012-02-26 07:15:00
1:35 AM,35.6,27.0,71,29.67,10.0,SSE,12.7,-,N/A,,Clear,150,2012-02-26 07:35:00
1:55 AM,34.5,26.6,73,29.68,10.0,SSE,9.2,-,N/A,,Clear,150,2012-02-26 07:55:00
2:15 AM,32.9,26.6,78,29.68,10.0,SSE,9.2,-,N/A,,Clear,160,2012-02-26 08:15:00
2:35 AM,32.4,26.6,79,29.67,10.0,SSE,10.4,-,N/A,,Clear,150,2012-02-26 08:35:00
2:55 AM,32.0,26.2,79,29.67,10.0,Calm,Calm,-,N/A,,Clear,0,2012-02-26 08:55:00
3:15 AM,33.8,26.2,74,29.66,10.0,Calm,Calm,-,N/A,,Clear,0,2012-02-26 09:15:00
3:35 AM,34.3,26.1,72,29.65,10.0,South,9.2,-,N/A,,Clear,190,2012-02-26 09:35:00
3:55 AM,33.8,25.5,72,29.65,10.0,South,8.1,-,N/A,,Clear,190,2012-02-26 09:55:00
4:35 AM,38.5,26.6,62,29.68,10.0,WSW,10.4,-,N/A,,Clear,240,2012-02-26 10:35:00
4:55 AM,36.7,26.4,66,29.70,10.0,SW,9.2,-,N/A,,Clear,220,2012-02-26 10:55:00
5:15 AM,34.7,26.2,71,29.70,10.0,SW,10.4,-,N/A,,Clear,220,2012-02-26 11:15:00
5:35 AM,36.3,25.9,66,29.72,10.0,SW,11.5,-,N/A,,Clear,230,2012-02-26 11:35:00
5:55 AM,36.1,24.8,63,29.72,10.0,WSW,9.2,-,N/A,,Clear,250,2012-02-26 11:55:00
6:35 AM,36.0,23.5,61,29.74,10.0,WSW,10.4,-,N/A,,Clear,240,2012-02-26 12:35:00
7:15 AM,35.6,23.5,62,29.77,10.0,SW,9.2,-,N/A,,Clear,230,2012-02-26 13:15:00
7:35 AM,36.1,23.0,59,29.78,10.0,WSW,9.2,-,N/A,,Clear,250,2012-02-26 13:35:00
7:55 AM,36.5,23.7,60,29.79,10.0,WSW,9.2,-,N/A,,Clear,240,2012-02-26 13:55:00
8:15 AM,37.9,23.5,56,29.80,10.0,WSW,11.5,-,N/A,,Clear,240,2012-02-26 14:15:00
8:55 AM,41.2,23.5,50,29.83,10.0,WSW,12.7,18.4,N/A,,Clear,240,2012-02-26 14:55:00
9:15 AM,43.0,23.4,46,29.84,10.0,WSW,16.1,20.7,N/A,,Clear,250,2012-02-26 15:15:00
9:35 AM,44.6,23.7,44,29.85,10.0,West,18.4,24.2,N/A,,Clear,260,2012-02-26 15:35:00
9:55 AM,46.2,25.0,43,29.86,10.0,West,19.6,25.3,N/A,,Clear,270,2012-02-26 15:55:00
10:15 AM,46.9,25.9,44,29.87,10.0,West,18.4,29.9,N/A,,Clear,270,2012-02-26 16:15:00
10:35 AM,47.3,24.1,40,29.87,10.0,WNW,23.0,32.2,N/A,,Clear,300,2012-02-26 16:35:00
10:55 AM,47.5,25.2,42,29.89,10.0,WNW,19.6,25.3,N/A,,Clear,300,2012-02-26 16:55:00
11:15 AM,48.0,26.2,43,29.89,10.0,NW,19.6,28.8,N/A,,Clear,310,2012-02-26 17:15:00
11:35 AM,48.4,27.0,43,29.90,10.0,NW,19.6,27.6,N/A,,Clear,310,2012-02-26 17:35:00
11:55 AM,49.1,27.9,44,29.91,10.0,WNW,19.6,25.3,N/A,,Clear,290,2012-02-26 17:55:00
12:35 PM,50.5,29.1,44,29.92,10.0,WNW,18.4,23.0,N/A,,Clear,290,2012-02-26 18:35:00
12:55 PM,50.5,29.1,44,29.92,10.0,West,13.8,-,N/A,,Clear,280,2012-02-26 18:55:00
1:15 PM,50.7,28.2,42,29.91,10.0,WNW,12.7,-,N/A,,Clear,290,2012-02-26 19:15:00
1:35 PM,51.4,28.9,42,29.91,10.0,West,16.1,-,N/A,,Scattered Clouds,270,2012-02-26 19:35:00
1:55 PM,51.3,28.9,42,29.92,10.0,West,18.4,-,N/A,,Clear,280,2012-02-26 19:55:00
2:15 PM,51.3,29.3,43,29.92,10.0,West,16.1,19.6,N/A,,Clear,270,2012-02-26 20:15:00
2:35 PM,51.1,27.9,41,29.92,10.0,West,16.1,-,N/A,,Clear,260,2012-02-26 20:35:00
2:55 PM,51.4,28.6,41,29.93,10.0,West,11.5,-,N/A,,Scattered Clouds,280,2012-02-26 20:55:00
3:15 PM,49.8,28.0,43,29.94,10.0,WNW,13.8,-,N/A,,Mostly Cloudy,300,2012-02-26 21:15:00
3:35 PM,50.5,28.9,43,29.95,10.0,WNW,13.8,18.4,N/A,,Scattered Clouds,300,2012-02-26 21:35:00
3:55 PM,48.7,28.8,46,29.97,10.0,NW,12.7,-,N/A,,Scattered Clouds,320,2012-02-26 21:55:00
4:15 PM,48.6,29.5,48,29.97,10.0,NW,10.4,-,N/A,,Mostly Cloudy,310,2012-02-26 22:15:00
4:35 PM,50.0,29.5,45,29.98,10.0,NW,10.4,-,N/A,,Scattered Clouds,310,2012-02-26 22:35:00
4:55 PM,50.9,29.7,44,29.99,10.0,NNW,10.4,25.3,N/A,,Mostly Cloudy,330,2012-02-26 22:55:00
5:15 PM,49.6,28.8,45,29.99,10.0,NW,12.7,19.6,N/A,,Mostly Cloudy,310,2012-02-26 23:15:00
5:35 PM,48.4,28.6,46,30.01,10.0,WNW,9.2,-,N/A,,Scattered Clouds,300,2012-02-26 23:35:00
5:55 PM,46.0,28.4,50,30.02,10.0,NW,8.1,-,N/A,,Clear,310,2012-02-26 23:55:00
6:15 PM,43.3,28.9,57,30.03,10.0,WNW,6.9,-,N/A,,Clear,300,2012-02-27 00:15:00
6:35 PM,42.1,27.5,56,30.04,10.0,NW,6.9,-,N/A,,Clear,320,2012-02-27 00:35:00
6:55 PM,38.8,27.3,63,30.05,10.0,NNW,5.8,-,N/A,,Clear,330,2012-02-27 00:55:00
7:15 PM,39.7,27.1,61,30.07,10.0,NW,6.9,-,N/A,,Clear,320,2012-02-27 01:15:00
7:35 PM,39.0,26.4,61,30.08,10.0,NW,6.9,-,N/A,,Clear,320,2012-02-27 01:35:00
7:55 PM,36.1,26.6,68,30.09,10.0,NW,8.1,-,N/A,,Clear,320,2012-02-27 01:55:00
8:15 PM,37.4,25.0,61,30.11,10.0,NNW,12.7,-,N/A,,Clear,330,2012-02-27 02:15:00
8:35 PM,35.4,25.9,68,30.14,10.0,NNW,12.7,-,N/A,,Clear,340,2012-02-27 02:35:00
8:55 PM,34.0,26.6,74,30.16,10.0,NNW,11.5,-,N/A,,Clear,340,2012-02-27 02:55:00
9:15 PM,33.1,26.1,75,30.17,10.0,NNW,13.8,-,N/A,,Clear,340,2012-02-27 03:15:00
9:35 PM,32.7,24.8,73,30.19,10.0,NNW,11.5,-,N/A,,Clear,340,2012-02-27 03:35:00
9:55 PM,32.2,23.9,72,30.21,10.0,NNW,11.5,-,N/A,,Clear,330,2012-02-27 03:55:00
10:15 PM,32.0,23.7,71,30.22,10.0,NNW,11.5,-,N/A,,Clear,330,2012-02-27 04:15:00
10:35 PM,31.1,23.4,73,30.24,10.0,NNW,8.1,-,N/A,,Clear,330,2012-02-27 04:35:00
10:55 PM,30.2,23.0,75,30.25,10.0,North,13.8,-,N/A,,Clear,350,2012-02-27 04:55:00
11:15 PM,29.3,23.0,77,30.26,10.0,North,12.7,-,N/A,,Clear,350,2012-02-27 05:15:00
11:35 PM,28.6,22.6,78,30.27,10.0,NNW,10.4,-,N/A,,Clear,340,2012-02-27 05:35:00
11:55 PM,27.7,21.6,78,30.28,10.0,NNW,10.4,-,N/A,,Clear,340,2012-02-27 05:55:00